Zurück zum Katalog

STARLINK-3336

AktivKommunikationVLEO
NORAD 50818·PAYLOAD·🇺🇸 United States

Gestartet Jan 6, 2022 von Cape Canaveral Space Force Station

Loading…

Nächste Überflüge (nächste 24 Stunden)

TLE

AktuellSource: CelesTrak SupGP

Epoche: Sep 14, 2026, 21:01 UTC

1 50818C 22001R   26257.87618056  .00029512  00000+0  87207-3 0  2572
2 50818  53.1602  28.3517 0001130  76.5092  92.2809 15.34371387    14

Verfolge STARLINK-3336 in Echtzeit mit AllMySat

Download on the App Store